Time,TemperatureF,DewpointF,PressureIn,WindDirection,WindDirectionDegrees,WindSpeedMPH,WindSpeedGustMPH,Humidity,HourlyPrecipIn,Conditions,Clouds,dailyrainin,SoftwareType,DateUTC
2013-01-08 00:00:00,30.2,24.5,29.66,SW,225,3.0,13.0,79,0.00,,,0.00,WeatherCatV1.02B3,2013-01-08 05:00:00,
2013-01-08 00:05:00,30.2,24.5,29.66,SW,225,3.0,13.0,79,0.00,,,0.00,WeatherCatV1.02B3,2013-01-08 05:05:00,
2013-01-08 00:10:00,30.2,24.5,29.66,SW,225,3.0,13.0,79,0.00,,,0.00,WeatherCatV1.02B3,2013-01-08 05:10:00,
2013-01-08 00:15:00,30.2,24.5,29.66,SW,225,3.0,13.0,79,0.00,,,0.00,WeatherCatV1.02B3,2013-01-08 05:15:00,
2013-01-08 00:20:00,30.2,24.5,29.66,SW,225,3.0,13.0,79,0.00,,,0.00,WeatherCatV1.02B3,2013-01-08 05:20:00,
2013-01-08 00:25:00,30.2,24.5,29.66,SW,225,3.0,13.0,79,0.00,,,0.00,WeatherCatV1.02B3,2013-01-08 05:25:00,
2013-01-08 00:30:00,30.2,24.5,29.66,SW,225,3.0,13.0,79,0.00,,,0.00,WeatherCatV1.02B3,2013-01-08 05:30:00,
2013-01-08 00:35:00,30.6,24.6,29.67,WSW,248,3.0,8.0,78,0.00,,,0.00,WeatherCatV1.02B3,2013-01-08 05:35:00,
2013-01-08 00:40:00,30.6,24.6,29.67,WSW,248,3.0,8.0,78,0.00,,,0.00,WeatherCatV1.02B3,2013-01-08 05:40:00,
2013-01-08 00:45:00,30.6,24.6,29.67,WSW,248,3.0,8.0,78,0.00,,,0.00,WeatherCatV1.02B3,2013-01-08 05:45:00,
2013-01-08 00:50:00,30.6,24.6,29.67,WSW,248,3.0,8.0,78,0.00,,,0.00,WeatherCatV1.02B3,2013-01-08 05:50:00,
2013-01-08 00:55:00,30.6,24.6,29.67,WSW,248,3.0,8.0,78,0.00,,,0.00,WeatherCatV1.02B3,2013-01-08 05:55:00,
2013-01-08 01:00:00,30.6,24.6,29.67,WSW,248,3.0,8.0,78,0.00,,,0.00,WeatherCatV1.02B3,2013-01-08 06:00:00,
2013-01-08 01:05:00,30.3,24.6,29.66,WSW,248,3.0,11.0,79,0.00,,,0.00,WeatherCatV1.02B3,2013-01-08 06:05:00,
2013-01-08 01:10:00,30.3,24.6,29.66,WSW,248,3.0,11.0,79,0.00,,,0.00,WeatherCatV1.02B3,2013-01-08 06:10:00,
2013-01-08 01:15:00,30.3,24.6,29.66,WSW,248,3.0,11.0,79,0.00,,,0.00,WeatherCatV1.02B3,2013-01-08 06:15:00,
2013-01-08 01:20:00,30.3,24.6,29.66,WSW,248,3.0,11.0,79,0.00,,,0.00,WeatherCatV1.02B3,2013-01-08 06:20:00,
2013-01-08 01:25:00,30.3,24.6,29.66,WSW,248,3.0,11.0,79,0.00,,,0.00,WeatherCatV1.02B3,2013-01-08 06:25:00,
2013-01-08 01:30:00,30.3,24.6,29.66,WSW,248,3.0,11.0,79,0.00,,,0.00,WeatherCatV1.02B3,2013-01-08 06:30:00,
2013-01-08 01:35:00,30.3,24.6,29.66,SW,225,4.0,10.0,79,0.00,,,0.00,WeatherCatV1.02B3,2013-01-08 06:35:00,
2013-01-08 01:40:00,30.3,24.6,29.66,SW,225,4.0,10.0,79,0.00,,,0.00,WeatherCatV1.02B3,2013-01-08 06:40:00,
2013-01-08 01:45:00,30.3,24.6,29.66,SW,225,4.0,10.0,79,0.00,,,0.00,WeatherCatV1.02B3,2013-01-08 06:45:00,
2013-01-08 01:50:00,30.3,24.6,29.66,SW,225,4.0,10.0,79,0.00,,,0.00,WeatherCatV1.02B3,2013-01-08 06:50:00,
2013-01-08 01:55:00,30.3,24.6,29.66,SW,225,4.0,10.0,79,0.00,,,0.00,WeatherCatV1.02B3,2013-01-08 06:55:00,
2013-01-08 02:00:00,30.3,24.6,29.66,SW,225,4.0,10.0,79,0.00,,,0.00,WeatherCatV1.02B3,2013-01-08 07:00:00,
2013-01-08 02:05:00,29.7,24.6,29.65,SW,225,3.0,9.0,81,0.00,,,0.00,WeatherCatV1.02B3,2013-01-08 07:05:00,
2013-01-08 02:10:00,29.7,24.6,29.65,SW,225,3.0,9.0,81,0.00,,,0.00,WeatherCatV1.02B3,2013-01-08 07:10:00,
2013-01-08 02:15:00,29.7,24.6,29.65,SW,225,3.0,9.0,81,0.00,,,0.00,WeatherCatV1.02B3,2013-01-08 07:15:00,
2013-01-08 02:20:00,29.7,24.6,29.65,SW,225,3.0,9.0,81,0.00,,,0.00,WeatherCatV1.02B3,2013-01-08 07:20:00,
2013-01-08 02:25:00,29.7,24.6,29.65,SW,225,3.0,9.0,81,0.00,,,0.00,WeatherCatV1.02B3,2013-01-08 07:25:00,
2013-01-08 02:30:00,29.7,24.6,29.65,SW,225,3.0,9.0,81,0.00,,,0.00,WeatherCatV1.02B3,2013-01-08 07:30:00,
2013-01-08 02:35:00,29.4,24.6,29.65,SW,225,2.0,9.0,82,0.00,,,0.00,WeatherCatV1.02B3,2013-01-08 07:35:00,
2013-01-08 02:40:00,29.4,24.6,29.65,SW,225,2.0,9.0,82,0.00,,,0.00,WeatherCatV1.02B3,2013-01-08 07:40:00,
2013-01-08 02:45:00,29.4,24.6,29.65,SW,225,2.0,9.0,82,0.00,,,0.00,WeatherCatV1.02B3,2013-01-08 07:45:00,
2013-01-08 02:50:00,29.4,24.6,29.65,SW,225,2.0,9.0,82,0.00,,,0.00,WeatherCatV1.02B3,2013-01-08 07:50:00,
2013-01-08 02:55:00,29.4,24.6,29.65,SW,225,2.0,9.0,82,0.00,,,0.00,WeatherCatV1.02B3,2013-01-08 07:55:00,
2013-01-08 03:00:00,28.9,24.7,29.65,SW,225,2.0,7.0,84,0.00,,,0.00,WeatherCatV1.02B3,2013-01-08 08:00:00,
2013-01-08 03:05:00,28.9,24.7,29.65,SW,225,2.0,7.0,84,0.00,,,0.00,WeatherCatV1.02B3,2013-01-08 08:05:00,
2013-01-08 03:10:00,28.9,24.7,29.65,SW,225,2.0,7.0,84,0.00,,,0.00,WeatherCatV1.02B3,2013-01-08 08:10:00,
2013-01-08 03:15:00,28.9,24.7,29.65,SW,225,2.0,7.0,84,0.00,,,0.00,WeatherCatV1.02B3,2013-01-08 08:15:00,
2013-01-08 03:20:00,28.9,24.7,29.65,SW,225,2.0,7.0,84,0.00,,,0.00,WeatherCatV1.02B3,2013-01-08 08:20:00,
2013-01-08 03:25:00,28.9,24.7,29.65,SW,225,2.0,7.0,84,0.00,,,0.00,WeatherCatV1.02B3,2013-01-08 08:25:00,
2013-01-08 03:30:00,29.3,25.1,29.66,SW,225,2.0,9.0,84,0.00,,,0.00,WeatherCatV1.02B3,2013-01-08 08:30:00,
2013-01-08 03:35:00,29.3,25.1,29.66,SW,225,2.0,9.0,84,0.00,,,0.00,WeatherCatV1.02B3,2013-01-08 08:35:00,
2013-01-08 03:40:00,29.3,25.1,29.66,SW,225,2.0,9.0,84,0.00,,,0.00,WeatherCatV1.02B3,2013-01-08 08:40:00,
2013-01-08 03:45:00,29.3,25.1,29.66,SW,225,2.0,9.0,84,0.00,,,0.00,WeatherCatV1.02B3,2013-01-08 08:45:00,
2013-01-08 03:50:00,29.3,25.1,29.66,SW,225,2.0,9.0,84,0.00,,,0.00,WeatherCatV1.02B3,2013-01-08 08:50:00,
2013-01-08 03:55:00,29.3,25.1,29.66,SW,225,2.0,9.0,84,0.00,,,0.00,WeatherCatV1.02B3,2013-01-08 08:55:00,
2013-01-08 04:00:00,29.3,25.1,29.66,SW,225,2.0,9.0,84,0.00,,,0.00,WeatherCatV1.02B3,2013-01-08 09:00:00,
2013-01-08 04:05:00,29.3,25.1,29.66,SW,225,2.0,7.0,84,0.00,,,0.00,WeatherCatV1.02B3,2013-01-08 09:05:00,
2013-01-08 04:10:00,29.3,25.1,29.66,SW,225,2.0,7.0,84,0.00,,,0.00,WeatherCatV1.02B3,2013-01-08 09:10:00,
2013-01-08 04:15:00,29.3,25.1,29.66,SW,225,2.0,7.0,84,0.00,,,0.00,WeatherCatV1.02B3,2013-01-08 09:15:00,
2013-01-08 04:20:00,29.3,25.1,29.66,SW,225,2.0,7.0,84,0.00,,,0.00,WeatherCatV1.02B3,2013-01-08 09:20:00,
2013-01-08 04:25:00,29.3,25.1,29.66,SW,225,2.0,7.0,84,0.00,,,0.00,WeatherCatV1.02B3,2013-01-08 09:25:00,
2013-01-08 04:30:00,28.6,24.7,29.66,SW,225,1.0,7.0,85,0.00,,,0.00,WeatherCatV1.02B3,2013-01-08 09:30:00,
2013-01-08 04:35:00,28.6,24.7,29.66,SW,225,1.0,7.0,85,0.00,,,0.00,WeatherCatV1.02B3,2013-01-08 09:35:00,
2013-01-08 04:40:00,28.6,24.7,29.66,SW,225,1.0,7.0,85,0.00,,,0.00,WeatherCatV1.02B3,2013-01-08 09:40:00,
2013-01-08 04:45:00,28.6,24.7,29.66,SW,225,1.0,7.0,85,0.00,,,0.00,WeatherCatV1.02B3,2013-01-08 09:45:00,
2013-01-08 04:50:00,28.6,24.7,29.66,SW,225,1.0,7.0,85,0.00,,,0.00,WeatherCatV1.02B3,2013-01-08 09:50:00,
2013-01-08 04:55:00,28.6,24.7,29.66,SW,225,1.0,7.0,85,0.00,,,0.00,WeatherCatV1.02B3,2013-01-08 09:55:00,
2013-01-08 05:00:00,28.8,24.9,29.65,SW,225,1.0,6.0,85,0.00,,,0.00,WeatherCatV1.02B3,2013-01-08 10:00:00,
2013-01-08 05:05:00,28.8,24.9,29.65,SW,225,1.0,6.0,85,0.00,,,0.00,WeatherCatV1.02B3,2013-01-08 10:05:00,
2013-01-08 05:10:00,28.8,24.9,29.65,SW,225,1.0,6.0,85,0.00,,,0.00,WeatherCatV1.02B3,2013-01-08 10:10:00,
2013-01-08 05:15:00,28.8,24.9,29.65,SW,225,1.0,6.0,85,0.00,,,0.00,WeatherCatV1.02B3,2013-01-08 10:15:00,
2013-01-08 05:20:00,28.8,24.9,29.65,SW,225,1.0,6.0,85,0.00,,,0.00,WeatherCatV1.02B3,2013-01-08 10:20:00,
2013-01-08 05:25:00,28.8,24.9,29.65,SW,225,1.0,6.0,85,0.00,,,0.00,WeatherCatV1.02B3,2013-01-08 10:25:00,
2013-01-08 05:30:00,28.8,24.9,29.65,SW,225,1.0,6.0,85,0.00,,,0.00,WeatherCatV1.02B3,2013-01-08 10:30:00,
2013-01-08 05:35:00,28.1,24.7,29.65,SW,225,0.0,5.0,87,0.00,,,0.00,WeatherCatV1.02B3,2013-01-08 10:35:00,
2013-01-08 05:40:00,28.1,24.7,29.65,SW,225,0.0,5.0,87,0.00,,,0.00,WeatherCatV1.02B3,2013-01-08 10:40:00,
2013-01-08 05:45:00,28.1,24.7,29.65,SW,225,0.0,5.0,87,0.00,,,0.00,WeatherCatV1.02B3,2013-01-08 10:45:00,
2013-01-08 05:50:00,28.1,24.7,29.65,SW,225,0.0,5.0,87,0.00,,,0.00,WeatherCatV1.02B3,2013-01-08 10:50:00,
2013-01-08 05:55:00,28.1,24.7,29.65,SW,225,0.0,5.0,87,0.00,,,0.00,WeatherCatV1.02B3,2013-01-08 10:55:00,
2013-01-08 06:00:00,28.1,24.7,29.65,SW,225,0.0,5.0,87,0.00,,,0.00,WeatherCatV1.02B3,2013-01-08 11:00:00,
2013-01-08 06:05:00,27.4,24.0,29.65,SW,225,0.0,4.0,87,0.00,,,0.00,WeatherCatV1.02B3,2013-01-08 11:05:00,
2013-01-08 06:10:00,27.4,24.0,29.65,SW,225,0.0,4.0,87,0.00,,,0.00,WeatherCatV1.02B3,2013-01-08 11:10:00,
2013-01-08 06:15:00,27.4,24.0,29.65,SW,225,0.0,4.0,87,0.00,,,0.00,WeatherCatV1.02B3,2013-01-08 11:15:00,
2013-01-08 06:20:00,27.4,24.0,29.65,SW,225,0.0,4.0,87,0.00,,,0.00,WeatherCatV1.02B3,2013-01-08 11:20:00,
2013-01-08 06:25:00,27.4,24.0,29.65,SW,225,0.0,4.0,87,0.00,,,0.00,WeatherCatV1.02B3,2013-01-08 11:25:00,
2013-01-08 06:30:00,26.4,23.9,29.65,North,0,0.0,1.0,90,0.00,,,0.00,WeatherCatV1.02B3,2013-01-08 11:30:00,
2013-01-08 06:35:00,26.4,23.9,29.65,North,0,0.0,1.0,90,0.00,,,0.00,WeatherCatV1.02B3,2013-01-08 11:35:00,
2013-01-08 06:40:00,26.4,23.9,29.65,North,0,0.0,1.0,90,0.00,,,0.00,WeatherCatV1.02B3,2013-01-08 11:40:00,
2013-01-08 06:45:00,26.4,23.9,29.65,North,0,0.0,1.0,90,0.00,,,0.00,WeatherCatV1.02B3,2013-01-08 11:45:00,
2013-01-08 06:50:00,26.4,23.9,29.65,North,0,0.0,1.0,90,0.00,,,0.00,WeatherCatV1.02B3,2013-01-08 11:50:00,
2013-01-08 06:55:00,26.4,23.9,29.65,North,0,0.0,1.0,90,0.00,,,0.00,WeatherCatV1.02B3,2013-01-08 11:55:00,
2013-01-08 07:00:00,26.4,23.9,29.65,North,0,0.0,1.0,90,0.00,,,0.00,WeatherCatV1.02B3,2013-01-08 12:00:00,
2013-01-08 07:05:00,26.3,23.8,29.65,WSW,248,0.0,3.0,90,0.00,,,0.00,WeatherCatV1.02B3,2013-01-08 12:05:00,
2013-01-08 07:10:00,26.3,23.8,29.65,WSW,248,0.0,3.0,90,0.00,,,0.00,WeatherCatV1.02B3,2013-01-08 12:10:00,
2013-01-08 07:15:00,26.3,23.8,29.65,WSW,248,0.0,3.0,90,0.00,,,0.00,WeatherCatV1.02B3,2013-01-08 12:15:00,
2013-01-08 07:20:00,26.3,23.8,29.65,WSW,248,0.0,3.0,90,0.00,,,0.00,WeatherCatV1.02B3,2013-01-08 12:20:00,
2013-01-08 07:25:00,26.3,23.8,29.65,WSW,248,0.0,3.0,90,0.00,,,0.00,WeatherCatV1.02B3,2013-01-08 12:25:00,
2013-01-08 07:30:00,26.3,23.8,29.65,WSW,248,0.0,3.0,90,0.00,,,0.00,WeatherCatV1.02B3,2013-01-08 12:30:00,
2013-01-08 07:35:00,25.8,23.3,29.66,WSW,248,0.0,1.0,90,0.00,,,0.00,WeatherCatV1.02B3,2013-01-08 12:35:00,
2013-01-08 07:40:00,25.8,23.3,29.66,WSW,248,0.0,1.0,90,0.00,,,0.00,WeatherCatV1.02B3,2013-01-08 12:40:00,
2013-01-08 07:45:00,25.8,23.3,29.66,WSW,248,0.0,1.0,90,0.00,,,0.00,WeatherCatV1.02B3,2013-01-08 12:45:00,
2013-01-08 07:50:00,25.8,23.3,29.66,WSW,248,0.0,1.0,90,0.00,,,0.00,WeatherCatV1.02B3,2013-01-08 12:50:00,
2013-01-08 07:55:00,25.8,23.3,29.66,WSW,248,0.0,1.0,90,0.00,,,0.00,WeatherCatV1.02B3,2013-01-08 12:55:00,
2013-01-08 08:00:00,25.8,23.3,29.66,SW,225,0.0,2.0,90,0.00,,,0.00,WeatherCatV1.02B3,2013-01-08 13:00:00,
2013-01-08 08:05:00,25.8,23.3,29.66,SW,225,0.0,2.0,90,0.00,,,0.00,WeatherCatV1.02B3,2013-01-08 13:05:00,
2013-01-08 08:10:00,25.8,23.3,29.66,SW,225,0.0,2.0,90,0.00,,,0.00,WeatherCatV1.02B3,2013-01-08 13:10:00,
2013-01-08 08:15:00,25.8,23.3,29.66,SW,225,0.0,2.0,90,0.00,,,0.00,WeatherCatV1.02B3,2013-01-08 13:15:00,
2013-01-08 08:20:00,25.8,23.3,29.66,SW,225,0.0,2.0,90,0.00,,,0.00,WeatherCatV1.02B3,2013-01-08 13:20:00,
2013-01-08 08:25:00,25.8,23.3,29.66,SW,225,0.0,2.0,90,0.00,,,0.00,WeatherCatV1.02B3,2013-01-08 13:25:00,
2013-01-08 08:30:00,25.1,22.9,29.66,ENE,68,0.0,2.0,91,0.00,,,0.00,WeatherCatV1.02B3,2013-01-08 13:30:00,
2013-01-08 08:35:00,25.1,22.9,29.66,ENE,68,0.0,2.0,91,0.00,,,0.00,WeatherCatV1.02B3,2013-01-08 13:35:00,
2013-01-08 08:40:00,25.1,22.9,29.66,ENE,68,0.0,2.0,91,0.00,,,0.00,WeatherCatV1.02B3,2013-01-08 13:40:00,
2013-01-08 08:45:00,25.1,22.9,29.66,ENE,68,0.0,2.0,91,0.00,,,0.00,WeatherCatV1.02B3,2013-01-08 13:45:00,
2013-01-08 08:50:00,25.1,22.9,29.66,ENE,68,0.0,2.0,91,0.00,,,0.00,WeatherCatV1.02B3,2013-01-08 13:50:00,
2013-01-08 08:55:00,25.1,22.9,29.66,ENE,68,0.0,2.0,91,0.00,,,0.00,WeatherCatV1.02B3,2013-01-08 13:55:00,
2013-01-08 09:00:00,25.1,22.9,29.66,ENE,68,0.0,2.0,91,0.00,,,0.00,WeatherCatV1.02B3,2013-01-08 14:00:00,
2013-01-08 09:05:00,24.2,22.2,29.67,SW,225,0.0,3.0,92,0.00,,,0.00,WeatherCatV1.02B3,2013-01-08 14:05:00,
2013-01-08 09:10:00,24.2,22.2,29.67,SW,225,0.0,3.0,92,0.00,,,0.00,WeatherCatV1.02B3,2013-01-08 14:10:00,
2013-01-08 09:15:00,24.2,22.2,29.67,SW,225,0.0,3.0,92,0.00,,,0.00,WeatherCatV1.02B3,2013-01-08 14:15:00,
2013-01-08 09:20:00,24.2,22.2,29.67,SW,225,0.0,3.0,92,0.00,,,0.00,WeatherCatV1.02B3,2013-01-08 14:20:00,
2013-01-08 09:25:00,24.2,22.2,29.67,SW,225,0.0,3.0,92,0.00,,,0.00,WeatherCatV1.02B3,2013-01-08 14:25:00,
2013-01-08 09:30:00,24.2,22.2,29.67,SW,225,0.0,3.0,92,0.00,,,0.00,WeatherCatV1.02B3,2013-01-08 14:30:00,
2013-01-08 09:35:00,23.9,21.7,29.68,ESE,112,0.0,1.0,91,0.00,,,0.00,WeatherCatV1.02B3,2013-01-08 14:35:00,
2013-01-08 09:40:00,23.9,21.7,29.68,ESE,112,0.0,1.0,91,0.00,,,0.00,WeatherCatV1.02B3,2013-01-08 14:40:00,
2013-01-08 09:45:00,23.9,21.7,29.68,ESE,112,0.0,1.0,91,0.00,,,0.00,WeatherCatV1.02B3,2013-01-08 14:45:00,
2013-01-08 09:50:00,23.9,21.7,29.68,ESE,112,0.0,1.0,91,0.00,,,0.00,WeatherCatV1.02B3,2013-01-08 14:50:00,
2013-01-08 09:55:00,23.9,21.7,29.68,ESE,112,0.0,1.0,91,0.00,,,0.00,WeatherCatV1.02B3,2013-01-08 14:55:00,
2013-01-08 10:00:00,24.5,22.5,29.68,East,90,0.0,1.0,92,0.00,,,0.00,WeatherCatV1.02B3,2013-01-08 15:00:00,
2013-01-08 10:05:00,24.5,22.5,29.68,East,90,0.0,1.0,92,0.00,,,0.00,WeatherCatV1.02B3,2013-01-08 15:05:00,
2013-01-08 10:10:00,24.5,22.5,29.68,East,90,0.0,1.0,92,0.00,,,0.00,WeatherCatV1.02B3,2013-01-08 15:10:00,
2013-01-08 10:15:00,24.5,22.5,29.68,East,90,0.0,1.0,92,0.00,,,0.00,WeatherCatV1.02B3,2013-01-08 15:15:00,
2013-01-08 10:20:00,24.5,22.5,29.68,East,90,0.0,1.0,92,0.00,,,0.00,WeatherCatV1.02B3,2013-01-08 15:20:00,
2013-01-08 10:25:00,24.5,22.5,29.68,East,90,0.0,1.0,92,0.00,,,0.00,WeatherCatV1.02B3,2013-01-08 15:25:00,
2013-01-08 10:30:00,24.5,22.5,29.68,East,90,0.0,1.0,92,0.00,,,0.00,WeatherCatV1.02B3,2013-01-08 15:30:00,
2013-01-08 10:35:00,26.5,24.8,29.70,SW,225,0.0,4.0,93,0.00,,,0.00,WeatherCatV1.02B3,2013-01-08 15:35:00,
2013-01-08 10:40:00,26.5,24.8,29.70,SW,225,0.0,4.0,93,0.00,,,0.00,WeatherCatV1.02B3,2013-01-08 15:40:00,
2013-01-08 10:45:00,26.5,24.8,29.70,SW,225,0.0,4.0,93,0.00,,,0.00,WeatherCatV1.02B3,2013-01-08 15:45:00,
2013-01-08 10:50:00,26.5,24.8,29.70,SW,225,0.0,4.0,93,0.00,,,0.00,WeatherCatV1.02B3,2013-01-08 15:50:00,
2013-01-08 10:55:00,26.5,24.8,29.70,SW,225,0.0,4.0,93,0.00,,,0.00,WeatherCatV1.02B3,2013-01-08 15:55:00,
2013-01-08 11:00:00,26.5,24.8,29.70,SW,225,0.0,4.0,93,0.00,,,0.00,WeatherCatV1.02B3,2013-01-08 16:00:00,
2013-01-08 11:05:00,29.3,25.9,29.70,East,90,0.0,3.0,87,0.00,,,0.00,WeatherCatV1.02B3,2013-01-08 16:05:00,
2013-01-08 11:10:00,29.3,25.9,29.70,East,90,0.0,3.0,87,0.00,,,0.00,WeatherCatV1.02B3,2013-01-08 16:10:00,
2013-01-08 11:15:00,29.3,25.9,29.70,East,90,0.0,3.0,87,0.00,,,0.00,WeatherCatV1.02B3,2013-01-08 16:15:00,
2013-01-08 11:20:00,29.3,25.9,29.70,East,90,0.0,3.0,87,0.00,,,0.00,WeatherCatV1.02B3,2013-01-08 16:20:00,
2013-01-08 11:25:00,29.3,25.9,29.70,East,90,0.0,3.0,87,0.00,,,0.00,WeatherCatV1.02B3,2013-01-08 16:25:00,
2013-01-08 11:30:00,31.0,27.0,29.71,ESE,112,0.0,3.0,85,0.00,,,0.00,WeatherCatV1.02B3,2013-01-08 16:30:00,
2013-01-08 11:35:00,31.0,27.0,29.71,ESE,112,0.0,3.0,85,0.00,,,0.00,WeatherCatV1.02B3,2013-01-08 16:35:00,
2013-01-08 11:40:00,31.0,27.0,29.71,ESE,112,0.0,3.0,85,0.00,,,0.00,WeatherCatV1.02B3,2013-01-08 16:40:00,
2013-01-08 11:45:00,31.0,27.0,29.71,ESE,112,0.0,3.0,85,0.00,,,0.00,WeatherCatV1.02B3,2013-01-08 16:45:00,
2013-01-08 11:50:00,31.0,27.0,29.71,ESE,112,0.0,3.0,85,0.00,,,0.00,WeatherCatV1.02B3,2013-01-08 16:50:00,
2013-01-08 11:55:00,31.0,27.0,29.71,ESE,112,0.0,3.0,85,0.00,,,0.00,WeatherCatV1.02B3,2013-01-08 16:55:00,
2013-01-08 12:00:00,31.0,27.0,29.71,ESE,112,0.0,3.0,85,0.00,,,0.00,WeatherCatV1.02B3,2013-01-08 17:00:00,
2013-01-08 12:05:00,32.4,27.2,29.71,ESE,112,0.0,2.0,81,0.00,,,0.00,WeatherCatV1.02B3,2013-01-08 17:05:00,
2013-01-08 12:10:00,32.4,27.2,29.71,ESE,112,0.0,2.0,81,0.00,,,0.00,WeatherCatV1.02B3,2013-01-08 17:10:00,
2013-01-08 12:15:00,32.4,27.2,29.71,ESE,112,0.0,2.0,81,0.00,,,0.00,WeatherCatV1.02B3,2013-01-08 17:15:00,
2013-01-08 12:20:00,32.4,27.2,29.71,ESE,112,0.0,2.0,81,0.00,,,0.00,WeatherCatV1.02B3,2013-01-08 17:20:00,
2013-01-08 12:25:00,32.4,27.2,29.71,ESE,112,0.0,2.0,81,0.00,,,0.00,WeatherCatV1.02B3,2013-01-08 17:25:00,
2013-01-08 12:30:00,32.4,27.2,29.71,ESE,112,0.0,2.0,81,0.00,,,0.00,WeatherCatV1.02B3,2013-01-08 17:30:00,
2013-01-08 12:35:00,34.4,28.6,29.70,ESE,112,0.0,3.0,79,0.00,,,0.00,WeatherCatV1.02B3,2013-01-08 17:35:00,
2013-01-08 12:40:00,34.4,28.6,29.70,ESE,112,0.0,3.0,79,0.00,,,0.00,WeatherCatV1.02B3,2013-01-08 17:40:00,
2013-01-08 12:45:00,34.4,28.6,29.70,ESE,112,0.0,3.0,79,0.00,,,0.00,WeatherCatV1.02B3,2013-01-08 17:45:00,
2013-01-08 12:50:00,34.4,28.6,29.70,ESE,112,0.0,3.0,79,0.00,,,0.00,WeatherCatV1.02B3,2013-01-08 17:50:00,
2013-01-08 12:55:00,34.4,28.6,29.70,ESE,112,0.0,3.0,79,0.00,,,0.00,WeatherCatV1.02B3,2013-01-08 17:55:00,
2013-01-08 13:00:00,34.4,28.6,29.70,ESE,112,0.0,3.0,79,0.00,,,0.00,WeatherCatV1.02B3,2013-01-08 18:00:00,
2013-01-08 13:05:00,36.7,29.2,29.69,SE,135,1.0,5.0,74,0.00,,,0.00,WeatherCatV1.02B3,2013-01-08 18:05:00,
2013-01-08 13:10:00,36.7,29.2,29.69,SE,135,1.0,5.0,74,0.00,,,0.00,WeatherCatV1.02B3,2013-01-08 18:10:00,
2013-01-08 13:15:00,36.7,29.2,29.69,SE,135,1.0,5.0,74,0.00,,,0.00,WeatherCatV1.02B3,2013-01-08 18:15:00,
2013-01-08 13:20:00,36.7,29.2,29.69,SE,135,1.0,5.0,74,0.00,,,0.00,WeatherCatV1.02B3,2013-01-08 18:20:00,
2013-01-08 13:25:00,36.7,29.2,29.69,SE,135,1.0,5.0,74,0.00,,,0.00,WeatherCatV1.02B3,2013-01-08 18:25:00,
2013-01-08 13:30:00,36.4,29.2,29.69,ESE,112,1.0,6.0,75,0.00,,,0.00,WeatherCatV1.02B3,2013-01-08 18:30:00,
2013-01-08 13:35:00,36.4,29.2,29.69,ESE,112,1.0,6.0,75,0.00,,,0.00,WeatherCatV1.02B3,2013-01-08 18:35:00,
2013-01-08 13:40:00,36.4,29.2,29.69,ESE,112,1.0,6.0,75,0.00,,,0.00,WeatherCatV1.02B3,2013-01-08 18:40:00,
2013-01-08 13:45:00,36.4,29.2,29.69,ESE,112,1.0,6.0,75,0.00,,,0.00,WeatherCatV1.02B3,2013-01-08 18:45:00,
2013-01-08 13:50:00,36.4,29.2,29.69,ESE,112,1.0,6.0,75,0.00,,,0.00,WeatherCatV1.02B3,2013-01-08 18:50:00,
2013-01-08 13:55:00,36.4,29.2,29.69,ESE,112,1.0,6.0,75,0.00,,,0.00,WeatherCatV1.02B3,2013-01-08 18:55:00,
2013-01-08 14:00:00,36.4,29.2,29.69,ESE,112,1.0,6.0,75,0.00,,,0.00,WeatherCatV1.02B3,2013-01-08 19:00:00,
2013-01-08 14:05:00,36.8,29.3,29.68,ESE,112,1.0,4.0,74,0.00,,,0.00,WeatherCatV1.02B3,2013-01-08 19:05:00,
2013-01-08 14:10:00,36.8,29.3,29.68,ESE,112,1.0,4.0,74,0.00,,,0.00,WeatherCatV1.02B3,2013-01-08 19:10:00,
2013-01-08 14:15:00,36.8,29.3,29.68,ESE,112,1.0,4.0,74,0.00,,,0.00,WeatherCatV1.02B3,2013-01-08 19:15:00,
2013-01-08 14:20:00,36.8,29.3,29.68,ESE,112,1.0,4.0,74,0.00,,,0.00,WeatherCatV1.02B3,2013-01-08 19:20:00,
2013-01-08 14:25:00,36.8,29.3,29.68,ESE,112,1.0,4.0,74,0.00,,,0.00,WeatherCatV1.02B3,2013-01-08 19:25:00,
2013-01-08 14:30:00,36.8,29.3,29.68,ESE,112,1.0,4.0,74,0.00,,,0.00,WeatherCatV1.02B3,2013-01-08 19:30:00,
2013-01-08 14:35:00,37.3,29.5,29.67,ESE,112,1.0,5.0,73,0.00,,,0.00,WeatherCatV1.02B3,2013-01-08 19:35:00,
2013-01-08 14:40:00,37.3,29.5,29.67,ESE,112,1.0,5.0,73,0.00,,,0.00,WeatherCatV1.02B3,2013-01-08 19:40:00,
2013-01-08 14:45:00,37.3,29.5,29.67,ESE,112,1.0,5.0,73,0.00,,,0.00,WeatherCatV1.02B3,2013-01-08 19:45:00,
2013-01-08 14:50:00,37.3,29.5,29.67,ESE,112,1.0,5.0,73,0.00,,,0.00,WeatherCatV1.02B3,2013-01-08 19:50:00,
2013-01-08 14:55:00,37.3,29.5,29.67,ESE,112,1.0,5.0,73,0.00,,,0.00,WeatherCatV1.02B3,2013-01-08 19:55:00,
2013-01-08 15:00:00,37.6,29.8,29.66,ESE,112,1.0,4.0,73,0.00,,,0.00,WeatherCatV1.02B3,2013-01-08 20:00:00,
2013-01-08 15:05:00,37.6,29.8,29.66,ESE,112,1.0,4.0,73,0.00,,,0.00,WeatherCatV1.02B3,2013-01-08 20:05:00,
2013-01-08 15:10:00,37.6,29.8,29.66,ESE,112,1.0,4.0,73,0.00,,,0.00,WeatherCatV1.02B3,2013-01-08 20:10:00,
2013-01-08 15:15:00,37.6,29.8,29.66,ESE,112,1.0,4.0,73,0.00,,,0.00,WeatherCatV1.02B3,2013-01-08 20:15:00,
2013-01-08 15:20:00,37.6,29.8,29.66,ESE,112,1.0,4.0,73,0.00,,,0.00,WeatherCatV1.02B3,2013-01-08 20:20:00,
2013-01-08 15:25:00,37.6,29.8,29.66,ESE,112,1.0,4.0,73,0.00,,,0.00,WeatherCatV1.02B3,2013-01-08 20:25:00,
2013-01-08 15:30:00,37.6,29.8,29.66,ESE,112,1.0,4.0,73,0.00,,,0.00,WeatherCatV1.02B3,2013-01-08 20:30:00,
2013-01-08 15:35:00,38.7,30.1,29.65,ESE,112,1.0,4.0,71,0.00,,,0.00,WeatherCatV1.02B3,2013-01-08 20:35:00,
2013-01-08 15:40:00,38.7,30.1,29.65,ESE,112,1.0,4.0,71,0.00,,,0.00,WeatherCatV1.02B3,2013-01-08 20:40:00,
2013-01-08 15:45:00,38.7,30.1,29.65,ESE,112,1.0,4.0,71,0.00,,,0.00,WeatherCatV1.02B3,2013-01-08 20:45:00,
2013-01-08 15:50:00,38.7,30.1,29.65,ESE,112,1.0,4.0,71,0.00,,,0.00,WeatherCatV1.02B3,2013-01-08 20:50:00,
2013-01-08 15:55:00,38.7,30.1,29.65,ESE,112,1.0,4.0,71,0.00,,,0.00,WeatherCatV1.02B3,2013-01-08 20:55:00,
2013-01-08 16:00:00,38.7,30.1,29.65,ESE,112,1.0,4.0,71,0.00,,,0.00,WeatherCatV1.02B3,2013-01-08 21:00:00,
2013-01-08 16:05:00,39.9,30.6,29.65,ESE,112,1.0,4.0,69,0.00,,,0.00,WeatherCatV1.02B3,2013-01-08 21:05:00,
2013-01-08 16:10:00,39.9,30.6,29.65,ESE,112,1.0,4.0,69,0.00,,,0.00,WeatherCatV1.02B3,2013-01-08 21:10:00,
2013-01-08 16:15:00,39.9,30.6,29.65,ESE,112,1.0,4.0,69,0.00,,,0.00,WeatherCatV1.02B3,2013-01-08 21:15:00,
2013-01-08 16:20:00,39.9,30.6,29.65,ESE,112,1.0,4.0,69,0.00,,,0.00,WeatherCatV1.02B3,2013-01-08 21:20:00,
2013-01-08 16:25:00,39.9,30.6,29.65,ESE,112,1.0,4.0,69,0.00,,,0.00,WeatherCatV1.02B3,2013-01-08 21:25:00,
2013-01-08 16:30:00,39.9,30.6,29.65,ESE,112,1.0,4.0,69,0.00,,,0.00,WeatherCatV1.02B3,2013-01-08 21:30:00,
2013-01-08 16:35:00,38.7,30.5,29.65,ESE,112,0.0,4.0,72,0.00,,,0.00,WeatherCatV1.02B3,2013-01-08 21:35:00,
2013-01-08 16:40:00,38.7,30.5,29.65,ESE,112,0.0,4.0,72,0.00,,,0.00,WeatherCatV1.02B3,2013-01-08 21:40:00,
2013-01-08 16:45:00,38.7,30.5,29.65,ESE,112,0.0,4.0,72,0.00,,,0.00,WeatherCatV1.02B3,2013-01-08 21:45:00,
2013-01-08 16:50:00,38.7,30.5,29.65,ESE,112,0.0,4.0,72,0.00,,,0.00,WeatherCatV1.02B3,2013-01-08 21:50:00,
2013-01-08 16:55:00,38.7,30.5,29.65,ESE,112,0.0,4.0,72,0.00,,,0.00,WeatherCatV1.02B3,2013-01-08 21:55:00,
2013-01-08 17:00:00,38.7,30.5,29.65,ESE,112,0.0,4.0,72,0.00,,,0.00,WeatherCatV1.02B3,2013-01-08 22:00:00,
2013-01-08 17:05:00,38.8,30.2,29.66,ESE,112,1.0,5.0,71,0.00,,,0.00,WeatherCatV1.02B3,2013-01-08 22:05:00,
2013-01-08 17:10:00,38.8,30.2,29.66,ESE,112,1.0,5.0,71,0.00,,,0.00,WeatherCatV1.02B3,2013-01-08 22:10:00,
2013-01-08 17:15:00,38.8,30.2,29.66,ESE,112,1.0,5.0,71,0.00,,,0.00,WeatherCatV1.02B3,2013-01-08 22:15:00,
2013-01-08 17:20:00,38.8,30.2,29.66,ESE,112,1.0,5.0,71,0.00,,,0.00,WeatherCatV1.02B3,2013-01-08 22:20:00,
2013-01-08 17:25:00,38.8,30.2,29.66,ESE,112,1.0,5.0,71,0.00,,,0.00,WeatherCatV1.02B3,2013-01-08 22:25:00,
2013-01-08 17:30:00,38.8,30.2,29.66,ESE,112,1.0,5.0,71,0.00,,,0.00,WeatherCatV1.02B3,2013-01-08 22:30:00,
2013-01-08 17:35:00,36.9,29.4,29.65,East,90,1.0,6.0,74,0.00,,,0.00,WeatherCatV1.02B3,2013-01-08 22:35:00,
2013-01-08 17:40:00,36.9,29.4,29.65,East,90,1.0,6.0,74,0.00,,,0.00,WeatherCatV1.02B3,2013-01-08 22:40:00,
2013-01-08 17:45:00,36.9,29.4,29.65,East,90,1.0,6.0,74,0.00,,,0.00,WeatherCatV1.02B3,2013-01-08 22:45:00,
2013-01-08 17:50:00,36.9,29.4,29.65,East,90,1.0,6.0,74,0.00,,,0.00,WeatherCatV1.02B3,2013-01-08 22:50:00,
2013-01-08 17:55:00,36.9,29.4,29.65,East,90,1.0,6.0,74,0.00,,,0.00,WeatherCatV1.02B3,2013-01-08 22:55:00,
2013-01-08 18:00:00,36.9,29.4,29.65,East,90,1.0,6.0,74,0.00,,,0.00,WeatherCatV1.02B3,2013-01-08 23:00:00,
2013-01-08 18:05:00,36.1,29.6,29.66,ESE,112,0.0,4.0,77,0.00,,,0.00,WeatherCatV1.02B3,2013-01-08 23:05:00,
2013-01-08 18:10:00,36.1,29.6,29.66,ESE,112,0.0,4.0,77,0.00,,,0.00,WeatherCatV1.02B3,2013-01-08 23:10:00,
2013-01-08 18:15:00,36.1,29.6,29.66,ESE,112,0.0,4.0,77,0.00,,,0.00,WeatherCatV1.02B3,2013-01-08 23:15:00,
2013-01-08 18:20:00,36.1,29.6,29.66,ESE,112,0.0,4.0,77,0.00,,,0.00,WeatherCatV1.02B3,2013-01-08 23:20:00,
2013-01-08 18:25:00,36.1,29.6,29.66,ESE,112,0.0,4.0,77,0.00,,,0.00,WeatherCatV1.02B3,2013-01-08 23:25:00,
2013-01-08 18:30:00,34.2,28.7,29.64,East,90,0.0,3.0,80,0.00,,,0.00,WeatherCatV1.02B3,2013-01-08 23:30:00,
2013-01-08 18:35:00,34.2,28.7,29.64,East,90,0.0,3.0,80,0.00,,,0.00,WeatherCatV1.02B3,2013-01-08 23:35:00,
2013-01-08 18:40:00,34.2,28.7,29.64,East,90,0.0,3.0,80,0.00,,,0.00,WeatherCatV1.02B3,2013-01-08 23:40:00,
2013-01-08 18:45:00,34.2,28.7,29.64,East,90,0.0,3.0,80,0.00,,,0.00,WeatherCatV1.02B3,2013-01-08 23:45:00,
2013-01-08 18:50:00,34.2,28.7,29.64,East,90,0.0,3.0,80,0.00,,,0.00,WeatherCatV1.02B3,2013-01-08 23:50:00,
2013-01-08 18:55:00,34.2,28.7,29.64,East,90,0.0,3.0,80,0.00,,,0.00,WeatherCatV1.02B3,2013-01-08 23:55:00,
2013-01-08 19:00:00,34.2,28.7,29.64,East,90,0.0,3.0,80,0.00,,,0.00,WeatherCatV1.02B3,2013-01-09 00:00:00,
2013-01-08 19:05:00,32.2,27.6,29.64,NNW,338,0.0,2.0,83,0.00,,,0.00,WeatherCatV1.02B3,2013-01-09 00:05:00,
2013-01-08 19:10:00,32.2,27.6,29.64,NNW,338,0.0,2.0,83,0.00,,,0.00,WeatherCatV1.02B3,2013-01-09 00:10:00,
2013-01-08 19:15:00,32.2,27.6,29.64,NNW,338,0.0,2.0,83,0.00,,,0.00,WeatherCatV1.02B3,2013-01-09 00:15:00,
2013-01-08 19:20:00,32.2,27.6,29.64,NNW,338,0.0,2.0,83,0.00,,,0.00,WeatherCatV1.02B3,2013-01-09 00:20:00,
2013-01-08 19:25:00,32.2,27.6,29.64,NNW,338,0.0,2.0,83,0.00,,,0.00,WeatherCatV1.02B3,2013-01-09 00:25:00,
2013-01-08 19:30:00,31.0,27.0,29.65,ESE,112,0.0,2.0,85,0.00,,,0.00,WeatherCatV1.02B3,2013-01-09 00:30:00,
2013-01-08 19:35:00,31.0,27.0,29.65,ESE,112,0.0,2.0,85,0.00,,,0.00,WeatherCatV1.02B3,2013-01-09 00:35:00,
2013-01-08 19:40:00,31.0,27.0,29.65,ESE,112,0.0,2.0,85,0.00,,,0.00,WeatherCatV1.02B3,2013-01-09 00:40:00,
2013-01-08 19:45:00,31.0,27.0,29.65,ESE,112,0.0,2.0,85,0.00,,,0.00,WeatherCatV1.02B3,2013-01-09 00:45:00,
2013-01-08 19:50:00,31.0,27.0,29.65,ESE,112,0.0,2.0,85,0.00,,,0.00,WeatherCatV1.02B3,2013-01-09 00:50:00,
2013-01-08 19:55:00,31.0,27.0,29.65,ESE,112,0.0,2.0,85,0.00,,,0.00,WeatherCatV1.02B3,2013-01-09 00:55:00,
2013-01-08 20:00:00,30.9,26.9,29.63,NE,45,0.0,1.0,85,0.00,,,0.00,WeatherCatV1.02B3,2013-01-09 01:00:00,
2013-01-08 20:05:00,30.9,26.9,29.63,NE,45,0.0,1.0,85,0.00,,,0.00,WeatherCatV1.02B3,2013-01-09 01:05:00,
2013-01-08 20:10:00,30.9,26.9,29.63,NE,45,0.0,1.0,85,0.00,,,0.00,WeatherCatV1.02B3,2013-01-09 01:10:00,
2013-01-08 20:15:00,30.9,26.9,29.63,NE,45,0.0,1.0,85,0.00,,,0.00,WeatherCatV1.02B3,2013-01-09 01:15:00,
2013-01-08 20:20:00,30.9,26.9,29.63,NE,45,0.0,1.0,85,0.00,,,0.00,WeatherCatV1.02B3,2013-01-09 01:20:00,
2013-01-08 20:25:00,30.9,26.9,29.63,NE,45,0.0,1.0,85,0.00,,,0.00,WeatherCatV1.02B3,2013-01-09 01:25:00,
2013-01-08 20:30:00,30.9,26.9,29.63,NE,45,0.0,1.0,85,0.00,,,0.00,WeatherCatV1.02B3,2013-01-09 01:30:00,
2013-01-08 20:35:00,32.1,27.8,29.63,NE,45,0.0,5.0,84,0.00,,,0.00,WeatherCatV1.02B3,2013-01-09 01:35:00,
2013-01-08 20:40:00,32.1,27.8,29.63,NE,45,0.0,5.0,84,0.00,,,0.00,WeatherCatV1.02B3,2013-01-09 01:40:00,
2013-01-08 20:45:00,32.1,27.8,29.63,NE,45,0.0,5.0,84,0.00,,,0.00,WeatherCatV1.02B3,2013-01-09 01:45:00,
2013-01-08 20:50:00,32.1,27.8,29.63,NE,45,0.0,5.0,84,0.00,,,0.00,WeatherCatV1.02B3,2013-01-09 01:50:00,
2013-01-08 20:55:00,32.1,27.8,29.63,NE,45,0.0,5.0,84,0.00,,,0.00,WeatherCatV1.02B3,2013-01-09 01:55:00,
2013-01-08 21:00:00,32.1,27.8,29.63,NE,45,0.0,5.0,84,0.00,,,0.00,WeatherCatV1.02B3,2013-01-09 02:00:00,
2013-01-08 21:05:00,32.9,28.6,29.63,ESE,112,1.0,7.0,84,0.00,,,0.00,WeatherCatV1.02B3,2013-01-09 02:05:00,
2013-01-08 21:10:00,32.9,28.6,29.63,ESE,112,1.0,7.0,84,0.00,,,0.00,WeatherCatV1.02B3,2013-01-09 02:10:00,
2013-01-08 21:15:00,32.9,28.6,29.63,ESE,112,1.0,7.0,84,0.00,,,0.00,WeatherCatV1.02B3,2013-01-09 02:15:00,
2013-01-08 21:20:00,32.9,28.6,29.63,ESE,112,1.0,7.0,84,0.00,,,0.00,WeatherCatV1.02B3,2013-01-09 02:20:00,
2013-01-08 21:25:00,32.9,28.6,29.63,ESE,112,1.0,7.0,84,0.00,,,0.00,WeatherCatV1.02B3,2013-01-09 02:25:00,
2013-01-08 21:30:00,33.9,29.0,29.64,SW,225,1.0,8.0,82,0.00,,,0.00,WeatherCatV1.02B3,2013-01-09 02:30:00,
2013-01-08 21:35:00,33.9,29.0,29.64,SW,225,1.0,8.0,82,0.00,,,0.00,WeatherCatV1.02B3,2013-01-09 02:35:00,
2013-01-08 21:40:00,33.9,29.0,29.64,SW,225,1.0,8.0,82,0.00,,,0.00,WeatherCatV1.02B3,2013-01-09 02:40:00,
2013-01-08 21:45:00,33.9,29.0,29.64,SW,225,1.0,8.0,82,0.00,,,0.00,WeatherCatV1.02B3,2013-01-09 02:45:00,
2013-01-08 21:50:00,33.9,29.0,29.64,SW,225,1.0,8.0,82,0.00,,,0.00,WeatherCatV1.02B3,2013-01-09 02:50:00,
2013-01-08 21:55:00,33.9,29.0,29.64,SW,225,1.0,8.0,82,0.00,,,0.00,WeatherCatV1.02B3,2013-01-09 02:55:00,
2013-01-08 22:00:00,33.9,29.0,29.64,SW,225,1.0,8.0,82,0.00,,,0.00,WeatherCatV1.02B3,2013-01-09 03:00:00,
2013-01-08 22:05:00,34.3,29.1,29.64,SW,225,1.0,9.0,81,0.00,,,0.00,WeatherCatV1.02B3,2013-01-09 03:05:00,
2013-01-08 22:10:00,34.3,29.1,29.64,SW,225,1.0,9.0,81,0.00,,,0.00,WeatherCatV1.02B3,2013-01-09 03:10:00,
2013-01-08 22:15:00,34.3,29.1,29.64,SW,225,1.0,9.0,81,0.00,,,0.00,WeatherCatV1.02B3,2013-01-09 03:15:00,
2013-01-08 22:20:00,34.3,29.1,29.64,SW,225,1.0,9.0,81,0.00,,,0.00,WeatherCatV1.02B3,2013-01-09 03:20:00,
2013-01-08 22:25:00,34.3,29.1,29.64,SW,225,1.0,9.0,81,0.00,,,0.00,WeatherCatV1.02B3,2013-01-09 03:25:00,
2013-01-08 22:30:00,34.3,29.1,29.64,SW,225,1.0,9.0,81,0.00,,,0.00,WeatherCatV1.02B3,2013-01-09 03:30:00,
2013-01-08 22:35:00,33.7,28.8,29.62,WSW,248,1.0,7.0,82,0.00,,,0.00,WeatherCatV1.02B3,2013-01-09 03:35:00,
2013-01-08 22:40:00,33.7,28.8,29.62,WSW,248,1.0,7.0,82,0.00,,,0.00,WeatherCatV1.02B3,2013-01-09 03:40:00,
2013-01-08 22:45:00,33.7,28.8,29.62,WSW,248,1.0,7.0,82,0.00,,,0.00,WeatherCatV1.02B3,2013-01-09 03:45:00,
2013-01-08 22:50:00,33.7,28.8,29.62,WSW,248,1.0,7.0,82,0.00,,,0.00,WeatherCatV1.02B3,2013-01-09 03:50:00,
2013-01-08 22:55:00,33.7,28.8,29.62,WSW,248,1.0,7.0,82,0.00,,,0.00,WeatherCatV1.02B3,2013-01-09 03:55:00,
2013-01-08 23:00:00,33.7,28.8,29.62,SW,225,1.0,8.0,82,0.00,,,0.00,WeatherCatV1.02B3,2013-01-09 04:00:00,
2013-01-08 23:05:00,33.7,28.8,29.62,SW,225,1.0,8.0,82,0.00,,,0.00,WeatherCatV1.02B3,2013-01-09 04:05:00,
2013-01-08 23:10:00,33.7,28.8,29.62,SW,225,1.0,8.0,82,0.00,,,0.00,WeatherCatV1.02B3,2013-01-09 04:10:00,
2013-01-08 23:15:00,33.7,28.8,29.62,SW,225,1.0,8.0,82,0.00,,,0.00,WeatherCatV1.02B3,2013-01-09 04:15:00,
2013-01-08 23:20:00,33.7,28.8,29.62,SW,225,1.0,8.0,82,0.00,,,0.00,WeatherCatV1.02B3,2013-01-09 04:20:00,
2013-01-08 23:25:00,33.7,28.8,29.62,SW,225,1.0,8.0,82,0.00,,,0.00,WeatherCatV1.02B3,2013-01-09 04:25:00,
2013-01-08 23:30:00,34.5,29.0,29.61,SSW,202,1.0,8.0,80,0.00,,,0.00,WeatherCatV1.02B3,2013-01-09 04:30:00,
2013-01-08 23:35:00,34.5,29.0,29.61,SSW,202,1.0,8.0,80,0.00,,,0.00,WeatherCatV1.02B3,2013-01-09 04:35:00,
2013-01-08 23:40:00,34.5,29.0,29.61,SSW,202,1.0,8.0,80,0.00,,,0.00,WeatherCatV1.02B3,2013-01-09 04:40:00,
2013-01-08 23:45:00,34.5,29.0,29.61,SSW,202,1.0,8.0,80,0.00,,,0.00,WeatherCatV1.02B3,2013-01-09 04:45:00,
2013-01-08 23:50:00,34.5,29.0,29.61,SSW,202,1.0,8.0,80,0.00,,,0.00,WeatherCatV1.02B3,2013-01-09 04:50:00,
2013-01-08 23:55:00,34.5,29.0,29.61,SSW,202,1.0,8.0,80,0.00,,,0.00,WeatherCatV1.02B3,2013-01-09 04:55:00,